CW5466 Weather Reports


time (UTC)temp
C
wind
direction
speed
KPH
gust
KPH
rain 1hr
cm
rain 24hr
cm
rain mn
cm
humidity
%
barometer
mb
20260505083043 12 66 17.7 29.0 0.00 0.00 0.00 45 1009.4
20260505081548 12 40 14.5 24.1 0.00 0.00 0.00 47 1009.2
20260505080057 12 60 16.1 25.7 0.00 0.00 0.00 47 1009.1
20260505074546 12 38 12.9 27.4 0.00 0.00 0.00 46 1009.0
20260505073048 12 32 19.3 32.2 0.00 0.00 0.00 44 1008.9
20260505071550 12 40 22.5 32.2 0.00 0.00 0.00 43 1008.6
20260505070040 13 13 19.3 29.0 0.00 0.00 0.00 42 1008.6
20260505064547 13 34 20.9 33.8 0.00 0.00 0.00 41 1008.9
20260505063049 13 18 22.5 37.0 0.00 0.00 0.00 40 1008.4
20260505061545 13 40 25.7 37.0 0.00 0.00 0.00 39 1008.4
20260505060046 13 26 27.4 38.6 0.00 0.00 0.00 39 1007.6
20260505054548 13 23 25.7 33.8 0.00 0.00 0.00 40 1007.0
20260505053048 13 39 22.5 40.2 0.00 0.00 0.00 40 1007.1
20260505051552 13 46 29.0 38.6 0.00 0.00 0.00 40 1007.0
20260505041540 15 31 29.0 45.1 0.00 0.00 0.00 38 1006.2
20260505040049 16 34 33.8 46.7 0.00 0.00 0.00 36 1006.0
20260505034546 17 14 33.8 46.7 0.00 0.00 0.00 35 1005.9
20260505033041 18 41 27.4 40.2 0.00 0.00 0.00 35 1005.6
20260505031547 19 24 29.0 38.6 0.00 0.00 0.00 34 1005.4
20260505030042 20 334 22.5 32.2 0.00 0.00 0.00 33 1005.2
20260505024544 20 23 25.7 40.2 0.00 0.00 0.00 31 1004.6
20260505023052 20 24 25.7 37.0 0.00 0.00 0.00 31 1004.2
20260505021545 21 42 22.5 38.6 0.00 0.00 0.00 31 1003.6
20260505020040 22 26 22.5 32.2 0.00 0.00 0.00 31 1002.9
20260505014542 22 343 25.7 43.5 0.00 0.00 0.00 31 1002.1
20260505013039 23 36 27.4 46.7 0.00 0.00 0.00 30 1001.8
20260505011548 24 332 29.0 43.5 0.00 0.00 0.00 31 1001.6
20260505010107 25 30 27.4 38.6 0.00 0.00 0.00 32 1001.4
20260505004544 25 336 14.5 22.5 0.00 0.00 0.00 31 1001.1
20260505003045 26 286 1.6 3.2 0.00 0.00 0.00 25 1000.6
20260505001541 27 0 0.0 4.8 0.00 0.00 0.00 25 1000.5
20260505000047 27 291 3.2 8.0 0.00 0.00 0.00 25 1000.7
20260504234544 27 254 4.8 11.3 0.00 0.00 0.00 22 1000.7
20260504233042 28 284 4.8 11.3 0.00 0.00 0.00 22 1000.8
20260504231547 28 292 11.3 16.1 0.00 0.00 0.00 21 1000.6
20260504230047 28 279 11.3 20.9 0.00 0.00 0.00 22 1000.6
20260504224540 28 308 11.3 27.4 0.00 0.00 0.00 22 1000.5
20260504223047 28 300 6.4 19.3 0.00 0.00 0.00 21 1000.5
20260504221558 28 295 8.0 17.7 0.00 0.00 0.00 20 1000.5
20260504220046 28 286 6.4 19.3 0.00 0.00 0.00 19 1000.5
20260504214538 28 290 16.1 20.9 0.00 0.00 0.00 20 1000.6
20260504213057 28 269 12.9 24.1 0.00 0.00 0.00 21 1000.6
20260504211546 29 166 16.1 30.6 0.00 0.00 0.00 24 1000.8
20260504210042 29 262 16.1 29.0 0.00 0.00 0.00 21 1000.8
20260504204542 29 297 27.4 35.4 0.00 0.00 0.00 19 1000.9
20260504203051 29 291 6.4 29.0 0.00 0.00 0.00 25 1000.9
20260504201543 29 304 20.9 32.2 0.00 0.00 0.00 24 1001.1
20260504200042 29 309 20.9 29.0 0.00 0.00 0.00 24 1001.0
20260504194544 29 311 25.7 33.8 0.00 0.00 0.00 24 1001.0
20260504193041 29 303 14.5 29.0 0.00 0.00 0.00 26 1001.1
20260504191546 28 305 9.7 24.1 0.00 0.00 0.00 27 1001.1
20260504190047 28 299 8.0 32.2 0.00 0.00 0.00 27 1001.0
20260504184546 28 296 6.4 19.3 0.00 0.00 0.00 32 1001.1
20260504183044 28 295 8.0 24.1 0.00 0.00 0.00 29 1001.1
20260504181543 28 322 11.3 20.9 0.00 0.00 0.00 26 1001.3
20260504180047 28 20 16.1 20.9 0.00 0.00 0.00 28 1001.3
20260504174547 28 273 4.8 25.7 0.00 0.00 0.00 30 1001.4
20260504173042 27 277 11.3 17.7 0.00 0.00 0.00 33 1001.5
20260504171544 27 160 3.2 17.7 0.00 0.00 0.00 37 1001.6